FLOCK 2E'-3

Last updated on April 19, 2018, 12:15 a.m. UTC

1 41480U 98067JA  18108.41998481  .29365034  12631-4  75769-3 0  9995
2 41480  51.5903 234.1920 0009861 304.4876  56.0997 16.45076624110110

Satellite is not in orbit.